Marfa, TX

6:17 AM CDT on September 26, 2016 (GMT -0500)
Marfa Municipal

Weather History for KMRF - March, 2013

Change the Weather History Date:

Tuesday, March 5, 2013

  Actual Average Record
Temperature  
Mean Temperature 45 °F -  
Max Temperature 57 °F 62 °F 80 °F (2009)
Min Temperature 33 °F 31 °F 12 °F (2007)
Degree Days  
Heating Degree Days 20    
Moisture  
Dew Point 23 °F    
Average Humidity 43    
Maximum Humidity 70    
Minimum Humidity 21    
Precipitation  
Precipitation 0.00 in - - ()
Sea Level Pressure  
Sea Level Pressure 30.31 in    
Wind  
Wind Speed 14 mph (NNE)    
Max Wind Speed 29 mph    
Max Gust Speed 34 mph    
Visibility 10 miles    
Events      
Averages and records for this station are not official NWS values.
T = Trace of Precipitation, MM = Missing Value Source: NWS Daily Summary

Daily Weather History Graph

Daily Weather History Graph

Search for Another Location

Airport or City:

Trip Planner

Search our weather history database for the weather conditions in past years. The results will help you decide how hot, cold, wet, or windy it might be!

Date:

Astronomy

Mar. 05, 2013 Rise Set
Actual Time 7:17 AM CST 6:57 PM CST
Civil Twilight 6:53 AM CST 7:21 PM CST
Nautical Twilight 6:25 AM CST 7:49 PM CST
Astronomical Twilight 5:57 AM CST 8:17 PM CST
Moon 2:13 AM CST (3/5) 12:57 PM CST (3/5)
Length of Visible Light 12h 28m
Length of Day
11h 40m
Last Quarter, 40% of the Moon is Illuminated
Mar 5
Last Quarter
Mar 11
New
Mar 19
First Quarter
Mar 27
Full
Apr 2
Last Quarter

Hourly Weather History & Observations

Time (CST) Temp. Windchill Dew Point Humidity Pressure Visibility Wind Dir Wind Speed Gust Speed Precip Events Conditions
12:15 AM 57.2 °F - 17.6 °F 21% 30.10 in 10.0 mi NW 5.8 mph - N/A   Overcast
1:35 AM 51.8 °F - 17.6 °F 26% 30.14 in 10.0 mi NNW 9.2 mph - N/A   Clear
1:55 AM 53.6 °F - 17.6 °F 24% 30.15 in 10.0 mi NNW 13.8 mph - N/A   Clear
2:15 AM 55.4 °F - 17.6 °F 23% 30.16 in 10.0 mi NNW 11.5 mph - N/A   Clear
2:35 AM 53.6 °F - 15.8 °F 22% 30.17 in 10.0 mi NNW 13.8 mph - N/A   Clear
2:55 AM 53.6 °F - 15.8 °F 22% 30.17 in 10.0 mi NNW 11.5 mph - N/A   Clear
3:15 AM 51.8 °F - 14.0 °F 22% 30.17 in 10.0 mi NNW 12.7 mph - N/A   Clear
3:35 AM 51.8 °F - 15.8 °F 24% 30.18 in 10.0 mi NNW 11.5 mph - N/A   Clear
3:55 AM 48.2 °F - 28.4 °F 46% 30.20 in 10.0 mi NNE 23.0 mph 34.5 mph N/A   Mostly Cloudy
4:15 AM 46.4 °F 38.1 °F 30.2 °F 53% 30.21 in 10.0 mi NNE 24.2 mph 29.9 mph N/A   Overcast
4:35 AM 44.6 °F 35.7 °F 32.0 °F 61% 30.22 in 10.0 mi NNE 24.2 mph 29.9 mph N/A   Overcast
4:55 AM 42.8 °F 33.8 °F 30.2 °F 61% 30.23 in 10.0 mi NNE 21.9 mph 31.1 mph N/A   Mostly Cloudy
5:15 AM 41.0 °F 30.5 °F 30.2 °F 65% 30.24 in 10.0 mi NNE 26.5 mph 33.4 mph N/A   Mostly Cloudy
5:35 AM 39.2 °F 28.0 °F 28.4 °F 65% 30.27 in 9.0 mi NNE 26.5 mph 32.2 mph N/A   Overcast
5:55 AM 37.4 °F 25.2 °F 26.6 °F 65% 30.27 in 10.0 mi North 28.8 mph 33.4 mph N/A   Overcast
6:15 AM 37.4 °F 25.4 °F 26.6 °F 65% 30.29 in 10.0 mi NNE 27.6 mph 33.4 mph N/A   Overcast
6:35 AM 35.6 °F 23.7 °F 26.6 °F 70% 30.31 in 10.0 mi NNE 24.2 mph 31.1 mph N/A   Overcast
7:15 AM 35.6 °F 24.0 °F 26.6 °F 70% 30.34 in 10.0 mi NNE 23.0 mph - N/A   Overcast
7:35 AM 35.6 °F 24.2 °F 26.6 °F 70% 30.34 in 10.0 mi NNE 21.9 mph 26.5 mph N/A   Overcast
7:55 AM 35.6 °F 23.7 °F 26.6 °F 70% 30.35 in 10.0 mi NNE 24.2 mph - N/A   Scattered Clouds
8:15 AM 35.6 °F 23.7 °F 26.6 °F 70% 30.36 in 10.0 mi North 24.2 mph - N/A   Clear
8:35 AM 37.4 °F 25.9 °F 26.6 °F 65% 30.37 in 10.0 mi North 25.3 mph - N/A   Clear
8:55 AM 37.4 °F 26.6 °F 26.6 °F 65% 30.37 in 10.0 mi North 21.9 mph - N/A   Clear
9:15 AM 37.4 °F 26.6 °F 24.8 °F 60% 30.38 in 10.0 mi NNE 21.9 mph 26.5 mph N/A   Clear
9:35 AM 37.4 °F 27.2 °F 24.8 °F 60% 30.39 in 10.0 mi NNE 19.6 mph - N/A   Clear
9:55 AM 39.2 °F 30.5 °F 24.8 °F 56% 30.40 in 10.0 mi NNE 16.1 mph 20.7 mph N/A   Clear
10:15 AM 42.8 °F 35.1 °F 24.8 °F 49% 30.41 in 10.0 mi NE 16.1 mph 20.7 mph N/A   Clear
10:35 AM 42.8 °F 34.8 °F 23.0 °F 46% 30.41 in 10.0 mi NE 17.3 mph - N/A   Clear
10:55 AM 44.6 °F 37.2 °F 24.8 °F 46% 30.41 in 10.0 mi NE 17.3 mph 21.9 mph N/A   Clear
11:15 AM 44.6 °F 37.2 °F 24.8 °F 46% 30.41 in 10.0 mi NE 17.3 mph 21.9 mph N/A   Clear
11:35 AM 44.6 °F 37.4 °F 24.8 °F 46% 30.40 in 10.0 mi NNE 16.1 mph - N/A   Clear
11:55 AM 46.4 °F 40.1 °F 23.0 °F 40% 30.40 in 10.0 mi NE 15.0 mph - N/A   Clear
12:15 PM 46.4 °F 40.1 °F 23.0 °F 40% 30.40 in 10.0 mi NE 15.0 mph - N/A   Clear
12:35 PM 48.2 °F - 23.0 °F 37% 30.39 in 10.0 mi NE 17.3 mph 21.9 mph N/A   Clear
12:55 PM 48.2 °F - 23.0 °F 37% 30.39 in 10.0 mi NNE 11.5 mph 18.4 mph N/A   Clear
1:15 PM 48.2 °F - 21.2 °F 34% 30.38 in 10.0 mi NE 12.7 mph 19.6 mph N/A   Clear
1:35 PM 50.0 °F - 21.2 °F 32% 30.38 in 10.0 mi NE 10.4 mph 17.3 mph N/A   Clear
1:55 PM 50.0 °F - 23.0 °F 35% 30.37 in 10.0 mi ENE 8.1 mph 18.4 mph N/A   Clear
2:15 PM 51.8 °F - 23.0 °F 33% 30.37 in 10.0 mi NE 11.5 mph - N/A   Clear
2:35 PM 51.8 °F - 23.0 °F 33% 30.36 in 10.0 mi ENE 8.1 mph - N/A   Clear
2:55 PM 51.8 °F - 23.0 °F 33% 30.35 in 10.0 mi NNE 9.2 mph - N/A   Clear
3:15 PM 53.6 °F - 23.0 °F 30% 30.35 in 10.0 mi East 9.2 mph 17.3 mph N/A   Clear
3:35 PM 53.6 °F - 24.8 °F 33% 30.34 in 10.0 mi East 10.4 mph - N/A   Clear
3:55 PM 53.6 °F - 23.0 °F 30% 30.33 in 10.0 mi East 10.4 mph - N/A   Clear
4:15 PM 55.4 °F - 24.8 °F 31% 30.32 in 10.0 mi ENE 10.4 mph - N/A   Clear
4:35 PM 55.4 °F - 24.8 °F 31% 30.31 in 10.0 mi ENE 3.5 mph - N/A   Clear
4:55 PM 55.4 °F - 24.8 °F 31% 30.32 in 10.0 mi East 9.2 mph - N/A   Clear
5:15 PM 55.4 °F - 24.8 °F 31% 30.31 in 10.0 mi East 10.4 mph - N/A   Clear
5:35 PM 53.6 °F - 23.0 °F 30% 30.31 in 10.0 mi East 9.2 mph - N/A   Clear
5:55 PM 55.4 °F - 23.0 °F 29% 30.31 in 10.0 mi East 11.5 mph - N/A   Clear
6:15 PM 53.6 °F - 23.0 °F 30% 30.31 in 10.0 mi East 11.5 mph - N/A   Clear
6:35 PM 51.8 °F - 21.2 °F 30% 30.32 in 10.0 mi East 8.1 mph - N/A   Clear
6:55 PM 50.0 °F - 21.2 °F 32% 30.32 in 10.0 mi ENE 9.2 mph - N/A   Clear
7:15 PM 46.4 °F 42.9 °F 19.4 °F 34% 30.32 in 10.0 mi ENE 6.9 mph - N/A   Clear
7:35 PM 42.8 °F 37.5 °F 19.4 °F 39% 30.33 in 10.0 mi NE 9.2 mph - N/A   Clear
7:55 PM 42.8 °F 37.0 °F 19.4 °F 39% 30.33 in 10.0 mi NE 10.4 mph - N/A   Clear
8:15 PM 42.8 °F 37.5 °F 19.4 °F 39% 30.32 in 10.0 mi NE 9.2 mph - N/A   Clear
8:35 PM 42.8 °F 37.5 °F 19.4 °F 39% 30.32 in 10.0 mi NNE 9.2 mph - N/A   Clear
8:55 PM 42.8 °F 38.0 °F 19.4 °F 39% 30.33 in 10.0 mi NE 8.1 mph - N/A   Clear
9:15 PM 39.2 °F 35.0 °F 19.4 °F 45% 30.33 in 10.0 mi NE 5.8 mph - N/A   Clear
9:35 PM 39.2 °F 34.2 °F 19.4 °F 45% 30.32 in 10.0 mi NE 6.9 mph - N/A   Clear
9:55 PM 37.4 °F 33.8 °F 17.6 °F 45% 30.33 in 10.0 mi North 4.6 mph - N/A   Clear
10:15 PM 35.6 °F 29.9 °F 17.6 °F 48% 30.33 in 10.0 mi NW 6.9 mph - N/A   Clear
10:35 PM 33.8 °F 27.0 °F 17.6 °F 52% 30.33 in 10.0 mi North 8.1 mph - N/A   Clear
10:55 PM 35.6 °F 29.9 °F 17.6 °F 48% 30.33 in 10.0 mi North 6.9 mph - N/A   Clear
11:15 PM 33.8 °F 27.7 °F 17.6 °F 52% 30.33 in 10.0 mi North 6.9 mph - N/A   Clear
11:35 PM 33.8 °F 29.6 °F 17.6 °F 52% 30.33 in 10.0 mi North 4.6 mph - N/A   Clear
11:55 PM 33.8 °F 28.6 °F 17.6 °F 52% 30.33 in 10.0 mi NE 5.8 mph - N/A   Clear